DMSP 5D-3 F17 (USA 191)

Last updated on Sat Aug 15 2026 00:02:40 GMT+0000 (Coordinated Universal Time)

1 29522U 06050A 26226.57708425 .00000001 00000+0 23144-4 0 9995 2 29522 98.7408 231.9592 0008944 247.1189 112.9041 14.15000422 20689
UTC large
Height (km)
Speed (km/s)
/
Latitude / Longitude
Inclination (degrees)
Orbital Period (minutes)
Azimuth
Elevation
Range (km)
Doppler Factor

Next 0 passes for location: London (51.5072 / 0.1276)

No passes found over London.
DMSP 5D-3 F17 (USA 191)